Location: Hurstbourne Priors
(51.2000°N, 1.3667°W)
Time: 08:17:57
(UTC+00:00)

Daily predictions for brighter satellites

Satellite Brightness Start Highest point End
(mag) Time Altitude Azimuth Time Altitude Azimuth Time Altitude Azimuth
STARLINK-1230 3.7 19:19:49 10° WNW 19:23:59 79° NNE 19:28:08 10° E
Nadezhda 1 Rocket 4.2 19:20:04 10° SSE 19:26:13 53° E 19:32:20 10° NNE
BREEZE M DEB (TANK) 4.4 19:23:58 10° SSE 19:26:14 15° ESE 19:29:51 10° E
Cosmos 1697 Rocket 4.4 19:23:13 10° NNW 19:27:19 20° NNE 19:31:23 10° E
STARLINK-1243 3.7 19:24:47 10° WNW 19:28:57 81° NNE 19:33:06 10° ESE
SPOT 3 Rocket 3.9 19:25:08 10° SE 19:30:09 50° ENE 19:35:10 10° N
Cosmos 2154 Rocket 4.1 19:23:51 10° N 19:30:12 67° ENE 19:36:30 10° SSE
FALCON 9 DEB 4.3 19:27:45 10° SSW 19:30:40 25° SE 19:33:35 10° E
Cosmos 1953 Rocket 3.6 19:26:43 10° N 19:31:14 77° E 19:35:43 10° SSE
ARGOS 3.2 19:26:11 10° SSE 19:31:34 80° ENE 19:36:58 10° NNW
NOSS 3-4 (A) 4.1 19:25:51 10° NW 19:32:44 71° SW 19:40:20 10° SSE
NOSS 3-4 (C) 4.1 19:25:57 10° NW 19:32:50 72° SW 19:40:26 10° SSE
Cosmos 1606 Rocket 3.6 19:29:01 10° S 19:33:26 71° E 19:37:55 10° NNE
STARLINK-1236 3.7 19:29:46 10° WNW 19:33:56 83° NNE 19:38:05 10° ESE
GEOS 3 Rocket 4.4 19:30:03 10° SSE 19:35:04 52° SW 19:40:13 10° NW
STARLINK-67 4.2 19:34:34 10° W 19:36:44 24° SSW 19:38:55 10° SSE
USA 186 1.8 19:33:43 10° S 19:36:58 82° WSW 19:40:04 10° NNW
CZ-4 R/B 4.3 19:37:21 10° SW 19:39:43 16° W 19:42:06 10° NW
Cosmos 1953 3.4 19:35:56 10° SSW 19:39:48 49° WNW 19:43:43 10° N
Meteor 1-11 4.3 19:35:32 10° N 19:41:20 81° ENE 19:47:01 10° SSE
Cosmos 1818 3.7 19:37:56 10° SW 19:43:24 81° NW 19:48:53 10° NE
NOSS 3-3 (A) 4.5 19:37:45 10° WSW 19:43:47 68° NW 19:50:42 10° NE
NOSS 3-3 (C) 4.5 19:37:51 10° WSW 19:43:53 68° NW 19:50:47 10° NE
STARLINK-1269 3.6 19:39:43 10° WNW 19:43:54 88° NNE 19:47:44 12° ESE
STARLINK-1200 3.6 19:44:42 10° WNW 19:48:52 89° SSW 19:52:31 13° ESE
STARLINK-1234 4.0 19:50:24 10° W 19:53:17 36° SSW 19:55:47 13° SE
STARLINK-1209 4.1 19:50:52 10° W 19:53:45 34° SSW 19:56:15 12° SSE
STARLINK-1192 3.6 19:49:41 10° WNW 19:53:51 86° SSW 19:57:18 15° ESE
STARLINK-1233 3.6 19:51:12 10° WNW 19:54:14 44° SSW 19:56:38 14° SE
STARLINK-1212 3.6 19:51:40 10° WNW 19:54:41 44° SSW 19:57:04 15° SE
STARLINK-1105 3.6 19:52:07 10° WNW 19:55:08 44° SSW 19:57:31 15° SE
STARLINK-1206 3.6 19:52:35 10° WNW 19:55:34 43° SSW 19:57:55 15° SE
STARLINK-1247 3.6 19:53:03 10° WNW 19:56:03 43° SSW 19:58:22 15° SE
STARLINK-1227 3.7 19:53:27 10° WNW 19:56:28 43° SSW 19:58:47 15° SE
STARLINK-1218 3.7 19:53:57 10° WNW 19:56:56 42° SSW 19:59:14 15° SE
Iridium 4 Rocket 4.4 19:53:44 10° NNE 19:56:58 21° ENE 19:59:06 15° ESE
SeaSat 1 3.0 19:52:10 10° NNE 19:57:05 65° NW 20:01:57 10° SW
STARLINK-1226 3.7 19:54:23 10° WNW 19:57:23 42° SSW 19:59:40 15° SE
Cosmos 1980 Rocket 4.0 19:53:31 10° NNW 19:57:28 19° NNE 20:01:24 10° ENE
STARLINK-1254 3.7 19:54:49 10° WNW 19:57:49 42° SSW 20:00:06 15° SE
STARLINK-1215 3.7 19:55:19 10° WNW 19:58:17 41° SSW 20:00:32 15° SE
STARLINK-1231 3.7 19:55:46 10° W 19:58:44 41° SSW 20:00:58 16° SE
Cosmos 1174 4.4 19:54:57 10° NNW 19:58:50 52° NE 20:02:39 15° ESE
STARLINK-1244 3.6 19:54:45 10° WNW 19:58:55 83° SSW 20:02:10 16° ESE
STARLINK-1232 3.7 19:56:41 10° W 19:59:38 41° SSW 20:01:50 16° SE
USA 234 4.4 19:55:46 10° E 20:00:02 18° ESE 20:04:17 10° SSE
STARLINK-1217 3.7 19:57:07 10° W 20:00:05 40° SSW 20:02:16 16° SE
Cosmos 1892 4.1 19:57:05 10° NNE 20:00:15 23° ENE 20:02:13 16° ESE
Abrixas rocket 3.4 19:57:44 10° W 20:00:19 27° SSW 20:02:07 15° SSE
STARLINK-1208 3.8 19:57:33 10° W 20:00:31 40° SSW 20:02:43 16° SE
STARLINK-1229 3.8 19:58:01 10° W 20:00:59 40° SSW 20:03:07 16° SE
STARLINK-1271 3.8 19:58:28 10° W 20:01:26 40° SSW 20:03:34 16° SE
STARLINK-1270 3.8 19:58:56 10° W 20:01:53 39° SSW 20:04:00 16° SE
STARLINK-1154 3.8 19:59:23 10° W 20:02:21 39° SSW 20:04:26 16° SSE
STARLINK-1197 3.8 20:00:17 10° W 20:03:14 38° SSW 20:05:18 17° SSE
STARLINK-1189 3.8 20:00:43 10° W 20:03:40 38° SSW 20:05:43 17° SSE
STARLINK-1138 3.6 19:59:39 10° WNW 20:03:48 79° SSW 20:06:52 18° ESE
STARLINK-1198 3.8 20:01:12 10° W 20:04:08 38° SSW 20:06:10 17° SSE
STARLINK-1188 3.8 20:01:38 10° W 20:04:34 38° SSW 20:06:35 17° SSE
Cosmos 1825 4.3 20:03:02 10° NE 20:04:34 12° ENE 20:05:39 11° E
ATLAS 2AS CENTAUR R/B 3.7 19:57:31 10° NW 20:04:43 48° WSW 20:11:21 10° S
ATLAS 5 CENTAUR R/B 1.5 20:00:39 10° SSW 20:04:48 66° SE 20:09:34 10° NE
H-2A R/B 3.0 20:00:09 10° S 20:05:08 48° W 20:10:01 10° NNW
STARLINK-1235 4.2 20:02:20 10° W 20:05:12 31° SSW 20:07:18 15° SSE
STARLINK-1187 4.0 20:02:43 10° W 20:05:39 34° SSW 20:07:42 16° SSE
STARLINK-1199 3.9 20:03:35 10° W 20:06:31 37° SSW 20:08:31 17° SSE
STARLINK-1191 3.9 20:04:02 10° W 20:06:59 37° SSW 20:08:56 17° SSE
STARLINK-1210 3.9 20:04:30 10° W 20:07:25 36° SSW 20:09:23 17° SSE
STARLINK-1221 3.9 20:04:57 10° W 20:07:53 36° SSW 20:09:49 18° SSE
COSMOS 2455 3.1 20:02:02 10° NW 20:08:03 72° WSW 20:13:57 10° SSE
STARLINK-1219 3.9 20:05:24 10° W 20:08:19 36° SSW 20:10:15 18° SSE
STARLINK-1222 3.9 20:05:51 10° W 20:08:46 36° SSW 20:10:40 18° SSE
STARLINK-1143 3.6 20:04:38 10° WNW 20:08:47 76° SSW 20:11:39 19° ESE
STARLINK-1211 4.0 20:06:19 10° W 20:09:14 35° SSW 20:11:07 18° SSE
STARLINK-1214 4.0 20:06:45 10° W 20:09:40 35° SSW 20:11:33 18° SSE
STARLINK-1245 4.0 20:07:14 10° W 20:10:07 35° SSW 20:11:57 18° SSE
STARLINK-1238 4.0 20:07:39 10° W 20:10:34 35° SSW 20:12:25 18° SSE
STARLINK-1205 4.0 20:08:36 10° W 20:11:28 34° SSW 20:13:16 18° SSE
STARLINK-1204 4.0 20:09:03 10° W 20:11:56 34° SSW 20:13:42 18° SSE
ERBS 2.2 20:08:58 10° WNW 20:12:22 89° NE 20:14:20 23° ESE
Cosmos 1140 Rocket 3.4 20:07:29 10° SSW 20:12:40 78° ESE 20:17:50 10° NNE
STARLINK-1241 3.7 20:09:39 10° WNW 20:13:47 73° SSW 20:16:28 21° ESE
STARLINK-29 3.1 20:14:42 10° SW 20:17:50 51° SSE 20:19:44 21° E
STARLINK-1239 3.7 20:14:37 10° WNW 20:18:45 69° SSW 20:21:14 23° SE
ATLAS CENTAUR R/B 2.7 20:16:33 10° NNW 20:19:56 26° NNE 20:22:10 16° ENE
CZ-2C R/B 4.3 20:16:02 10° SSW 20:20:29 37° W 20:24:56 10° NNW
SJ-6B 4.3 20:17:44 10° SSW 20:21:37 39° W 20:25:32 10° NNW
IGS 5A 4.5 20:20:27 21° ESE 20:22:16 30° ENE 20:25:55 10° N
Cosmos 1300 2.6 20:19:23 10° S 20:23:10 67° E 20:26:59 10° NNE
Resurs 1-3 3.8 20:19:15 10° S 20:23:38 74° WSW 20:28:03 10° NNW
STARLINK-1240 3.7 20:19:36 10° WNW 20:23:43 66° SSW 20:26:01 25° SE
STARLINK-60 2.9 20:22:19 10° WSW 20:25:36 89° S 20:27:48 19° ENE
Spot 2 Rocket 3.8 20:22:15 20° SE 20:25:38 50° ENE 20:30:34 10° N
Cosmos 841 Rocket 4.4 20:21:53 10° NNW 20:26:44 35° NE 20:29:32 21° ESE
Cosmos 1190 Rocket 4.2 20:21:37 10° SSW 20:26:55 75° WNW 20:32:14 10° NNE
In-Cosmos 22 Rocket 4.3 20:22:21 10° N 20:28:12 69° ENE 20:32:45 17° SSE
STARLINK-1216 3.8 20:24:34 10° WNW 20:28:40 62° SSW 20:30:47 27° SE
SL-24 R/B 4.1 20:26:28 10° N 20:30:32 71° WNW 20:34:14 10° SSW
Aureole 1 Rocket 4.4 20:23:34 10° SW 20:30:36 65° WNW 20:36:01 10° NNE
CZ-2C R/B 3.9 20:26:52 10° NNE 20:31:37 78° WNW 20:36:13 10° SSW
Terra 3.4 20:29:53 17° E 20:31:41 21° ENE 20:35:10 10° N
SPOT 5 4.0 20:31:40 20° E 20:33:06 24° ENE 20:36:34 10° N
STARLINK-1237 3.8 20:29:32 10° WNW 20:33:37 59° SSW 20:35:33 29° SE
MetOp-B 4.1 20:32:14 20° SSE 20:36:02 69° ENE 20:41:24 10° NNW
Cosmos 2058 Rocket 3.9 20:33:41 10° SSW 20:38:06 53° WNW 20:42:31 10° N
Cosmos 1833 Rocket 4.0 20:39:02 20° E 20:39:02 20° E 20:42:31 10° NE
STARLINK-1202 3.9 20:34:32 10° WNW 20:38:36 56° SSW 20:40:21 31° SE
Cosmos 468 Rocket 3.9 20:34:17 10° NNW 20:39:29 78° ENE 20:42:31 25° SSE
Cosmos 192 4.3 20:35:16 10° NNW 20:40:16 88° WSW 20:43:21 23° SSE
SL-4 R/B 1.5 20:41:45 10° W 20:45:10 85° N 20:46:33 34° E
DMSP B5D2-2 4.2 20:40:06 10° NNE 20:45:21 80° WNW 20:50:35 10° SSW
Cosmos 1408 3.2 20:42:58 10° N 20:46:24 37° ENE 20:46:55 35° E
Cosmos 1340 Rocket 4.4 20:44:19 10° SW 20:48:06 38° WNW 20:51:53 10° N
STARLINK-1246 4.1 20:44:30 10° WNW 20:48:31 50° SSW 20:49:54 34° SSE
RESURS DK-1 2.6 20:44:47 10° NNW 20:48:54 55° NE 20:50:15 36° ESE
ERS-1 Rocket 3.5 20:47:01 29° ESE 20:49:01 42° ENE 20:53:45 10° N
Cosmos 1766 Rocket 4.4 20:47:48 10° N 20:51:54 34° ENE 20:52:50 31° E
Cosmos 1570 Rocket 4.2 20:46:49 10° NNW 20:52:09 60° ENE 20:54:32 32° SE
BREEZE M DEB (TANK) 3.2 20:45:26 10° WSW 20:52:33 52° SSE 20:53:25 41° ESE
Okean 3 Rocket 4.2 20:49:19 10° N 20:53:31 40° ENE 20:54:33 35° ESE
STARLINK-1224 4.1 20:49:31 10° WNW 20:53:31 47° SSW 20:54:43 35° SSE
Meteor 2-12 Rocket 4.4 20:47:40 10° N 20:53:48 75° ENE 20:57:32 25° SSE
Cosmos 2058 2.9 20:51:17 10° NNW 20:55:24 82° W 20:57:23 30° S
STARLINK-1203 4.3 20:51:53 10° WNW 20:55:53 43° SSW 20:57:04 34° S
Cosmos 676 Rocket 4.3 20:50:53 10° SSW 20:56:09 70° WNW 21:01:25 10° NNE
CZ-4C R/B 3.3 20:50:21 10° NW 20:57:00 54° NE 21:01:49 24° ESE
COSMOS 2406 3.5 20:54:52 22° SSE 20:58:03 43° ESE 21:03:26 10° NE
STARLINK-52 2.8 20:54:58 10° WSW 20:58:11 79° SSE 20:58:27 70° E
STARLINK-1225 4.2 20:54:31 10° WNW 20:58:29 44° SSW 20:59:30 36° S
Resurs 01 Rocket 2.5 20:55:18 15° S 20:58:47 48° W 21:03:06 10° NNW
MOS 1 Rocket 4.0 20:55:00 10° N 21:00:21 66° WNW 21:05:44 10° SSW
Cosmos 2218 Rocket 4.1 20:56:03 10° NNW 21:02:16 77° W 21:07:06 18° S
STARLINK-1230 4.3 20:59:30 10° WNW 21:03:25 41° SSW 21:04:16 36° S
CZ-2C R/B 2.9 20:58:42 10° N 21:03:50 67° WNW 21:09:00 10° SSW
Cosmos 1812 Rocket 3.5 21:02:25 21° S 21:05:20 87° W 21:09:43 10° N
Cosmos 2151 3.0 21:02:38 10° N 21:06:49 58° ENE 21:07:34 49° ESE
FALCON 9 DEB 3.0 21:03:55 10° WSW 21:07:25 87° SSE 21:07:53 65° ENE
STARLINK-1243 4.4 21:04:29 10° WNW 21:08:22 39° SSW 21:09:03 36° S
Iridium 2 4.3 21:08:18 20° SSW 21:10:48 55° W 21:14:34 10° N
Cosmos 1697 Rocket 2.8 21:06:42 10° NNW 21:12:23 68° NE 21:14:28 39° SE
Cosmos 2369 3.8 21:06:51 10° NNW 21:12:30 66° ENE 21:14:34 39° SE
STARLINK-1236 4.4 21:09:29 10° WNW 21:13:19 36° SW 21:13:50 35° SSW
Cosmos 1076 Rocket 4.4 21:16:54 10° NNW 21:21:01 45° W 21:23:08 25° SSW
Cosmos 2181 Rocket 4.4 21:15:43 10° SSW 21:21:53 62° WNW 21:28:01 10° N
Cosmos 1741 Rocket 3.9 21:21:15 15° SSW 21:25:43 85° ESE 21:31:06 10° NNE
Landsat 7 4.0 21:25:10 39° S 21:26:52 69° WSW 21:31:38 10° NNW
Meteor 2-1 Rocket 4.4 21:23:23 14° SSW 21:28:34 78° WNW 21:34:32 10° N
Cosmos 1763 Rocket 4.0 21:24:30 10° NNW 21:29:33 52° WSW 21:31:31 33° SSW
Cosmos 1656 4.0 21:25:07 10° NW 21:30:44 60° WSW 21:32:50 36° S
Cosmos 1455 2.1 21:31:25 81° NE 21:31:25 81° NE 21:35:09 10° NNE
Cosmos 1408 Rocket 3.9 21:26:57 10° N 21:31:18 49° ENE 21:31:22 49° ENE
SPOT 1/Viking Rocket 3.7 21:30:44 39° S 21:32:39 73° WSW 21:37:55 10° NNW
Cosmos 540 Rocket 3.4 21:27:56 10° NNW 21:33:09 90° ENE 21:34:20 55° SSE
SL-16 R/B 3.7 21:29:12 10° NNW 21:33:57 26° NE 21:36:11 21° ENE
Cosmos 2360 Rocket 4.3 21:30:27 10° N 21:34:03 17° NNE 21:37:32 10° ENE
Cosmos 2208 Rocket 4.0 21:29:29 10° NNW 21:34:43 79° WSW 21:36:03 51° S
Cosmos 1892 4.0 21:32:28 10° NNW 21:36:04 36° W 21:37:13 29° SW
Iridium 4 Rocket 4.0 21:33:14 10° NNW 21:37:12 41° W 21:38:54 27° SW
Cosmos 1825 2.2 21:36:51 10° NNW 21:40:28 75° WNW 21:40:28 75° WNW
Cosmos 2322 Rocket 3.7 21:36:14 10° NNW 21:40:53 25° NE 21:43:04 20° ENE
Cosmos 1980 Rocket 2.3 21:36:59 10° NNW 21:42:36 65° NE 21:43:48 51° ESE
Nadezhda 3 Rocket 3.9 21:41:26 43° SSE 21:43:37 74° E 21:49:53 10° NNE
USA 234 3.2 21:37:37 10° ENE 21:44:03 57° SE 21:50:28 10° SW
Cosmos 1814 Rocket 4.0 21:39:36 10° NNW 21:44:59 77° WSW 21:46:08 55° S
Cosmos 2221 4.3 21:46:37 21° NE 21:46:37 21° NE 21:48:45 10° NNE
Cosmos-2242 3.0 21:45:30 67° SW 21:46:00 78° WNW 21:50:23 10° N
ATLAS 5 CENTAUR R/B 3.5 21:45:49 10° W 21:49:50 32° NNW 21:54:25 10° NE
ASTEX 1 3.6 21:50:00 54° E 21:50:07 54° ENE 21:54:58 10° N
Cosmos 1356 Rocket 3.8 21:49:52 53° WSW 21:50:37 63° WNW 21:54:49 10° N
BREEZE-M DEB (TANK) 4.5 21:49:01 10° W 21:49:11 11° W 21:49:11 11° W
Meteor 2-3 Rocket 3.6 21:48:39 10° N 21:54:25 75° ENE 21:55:21 61° SE
Cosmos 2084 4.1 21:52:50 10° NW 21:57:10 48° NE 21:57:21 48° NE
ATLAS CENTAUR R/B 2.0 21:55:20 10° NW 21:58:21 46° WNW 21:58:21 46° WNW
Mayak 0.2 22:02:41 10° NNE 22:04:58 28° NE 22:04:58 28° NE
Cosmos 841 Rocket 4.2 22:03:45 10° NW 22:08:45 45° WSW 22:09:38 41° SW
Terra 1.9 22:08:46 67° WSW 22:08:58 69° WSW 22:13:45 10° NNW
Cosmos 1821 Rocket 4.3 22:02:55 10° NNW 22:09:13 63° W 22:11:21 42° SSW
Cosmos 1934 Rocket 3.9 22:04:00 10° N 22:10:18 88° E 22:11:27 62° SSE
Cosmos 2360 4.2 22:04:53 10° NW 22:10:34 68° WSW 22:11:16 61° SSW
SPOT 5 3.2 22:10:53 46° WSW 22:10:58 46° W 22:15:11 10° NNW
Cosmos 2278 3.7 22:08:11 10° NNW 22:13:48 68° WSW 22:14:24 63° SSW
Cosmos 2082 Rocket 2.3 22:15:56 59° E 22:15:56 59° E 22:20:58 10° NE
Meteor 2-10 Rocket 4.2 22:14:57 33° SW 22:17:02 52° WNW 22:22:25 10° N
Cosmos 1833 Rocket 2.6 22:20:38 57° SW 22:21:50 82° WNW 22:27:31 10° NNE
SL-4 R/B 4.1 22:21:18 10° W 22:22:09 17° W 22:22:09 17° W
RESURS DK-1 4.4 22:23:31 10° WNW 22:26:09 20° W 22:26:09 20° W
ERS-1 Rocket 4.2 22:27:00 30° WSW 22:27:56 32° W 22:32:27 10° NNW
Cosmos 1605 Rocket 3.8 22:22:33 10° N 22:28:44 81° E 22:29:21 72° SE
Cosmos 2219 Rocket 4.5 22:27:35 10° N 22:31:12 17° NNE 22:34:42 10° ENE
Cosmos 2344 4.3 22:24:28 10° NW 22:33:47 83° SW 22:38:35 44° SSE
ALOS 2 4.0 22:36:50 30° NE 22:36:50 30° NE 22:39:54 10° N
Cosmos 1500 Rocket 4.3 22:35:43 10° NNW 22:39:04 51° NNW 22:39:04 51° NNW
COSMOS 2406 4.3 22:37:00 10° WSW 22:42:24 42° NW 22:47:51 10° NNE
Cosmos 1339 Rocket 4.4 22:42:33 76° SSE 22:43:00 81° E 22:49:27 10° NNE
CZ-4C R/B 3.1 22:38:53 10° NW 22:45:51 58° SW 22:46:59 53° SSW
Meteor 1-27 4.2 22:47:28 75° WSW 22:47:48 78° WNW 22:53:41 10° N
Spot 4 4.2 22:53:49 61° NNW 22:53:49 61° NNW 22:57:48 10° NNW
Cosmos 1697 Rocket 4.2 22:51:22 10° NW 22:55:53 25° WSW 22:56:13 25° WSW
Cosmos 1607 3.8 23:12:04 85° NNE 23:12:04 85° NNE 23:18:11 10° NE
Thor Agena Rocket 3.9 23:12:20 10° N 23:16:56 59° NW 23:16:56 59° NW
SL-16 R/B 2.4 23:13:01 10° NNW 23:18:02 69° NW 23:18:02 69° NW
Cosmos 2360 Rocket 2.6 23:13:51 10° NNW 23:19:17 54° NE 23:19:17 54° NE
Cosmos 2221 4.0 23:23:27 33° NW 23:23:27 33° NW 23:26:37 10° N
Cosmos 2322 Rocket 2.4 23:19:58 10° NNW 23:24:52 67° NW 23:24:52 67° NW
Cosmos 1980 Rocket 3.7 23:21:38 10° NW 23:25:34 25° W 23:25:34 25° W
USA 234 3.4 23:20:43 10° ENE 23:27:14 71° NNW 23:33:44 10° WSW
NOSS 2-1 (E) 4.4 23:24:09 10° NW 23:28:33 71° NW 23:28:33 71° NW
Cosmos 2061 Rocket 4.1 23:24:39 10° N 23:30:49 67° ENE 23:30:49 67° ENE
ATLAS 5 CENTAUR R/B 4.3 23:32:13 10° NW 23:35:57 21° N 23:40:07 10° NE
Cosmos 1459 Rocket 3.9 23:29:57 10° N 23:36:11 83° WNW 23:36:11 83° WNW
MOS 1-B Rocket 4.4 23:34:21 10° NNE 23:40:22 58° E 23:40:22 58° E
Cosmos 2333 Rocket 3.3 23:36:20 10° NNW 23:41:35 37° NE 23:42:25 35° ENE
Mayak 0.8 23:38:44 10° N 23:41:32 22° NW 23:41:32 22° NW
Cosmos 2237 Rocket 4.4 23:37:59 10° NNW 23:42:07 20° NE 23:46:13 10° E
Cosmos 2233 Rocket 4.5 23:41:36 10° N 23:47:42 49° ENE 23:47:50 49° ENE
Cosmos 1727 Rocket 4.3 23:50:34 55° W 23:50:54 55° WNW 23:57:08 10° N
SL-16 R/B 4.4 23:48:43 15° E 23:51:51 22° NE 23:56:26 10° N
Nimbus 7 Rocket 4.5 23:46:03 10° NNE 23:51:43 74° NW 23:51:43 74° NW
